Temperature
25 24 24 24 25 25 25 24 24 24 25 24 23 23 23 23 23 22 22 22 21 20 20 19 19 19 18 18 18 18 17 17 17 17 16 16 16 16 16 16 16 16 15 15
25 24 25 25 26 25 25 24 24 24 25 25 24 23 24 23 23 23 22 22 21 21 20 19 19 18 18 18 18 18 17 17 17 17 16 16 16 16 16 16 16 16 15 15
24 25 26 25 25 25 25 24 24 24 24 25 24 22 23 23 23 23 22 22 22 21 20 20 19 18 18 18 18 18 17 17 17 17 16 16 16 16 16 16 15 15 15 15
25 26 25 25 25 25 24 25 25 24 23 23 24 21 23 23 23 23 22 22 21 21 20 20 19 18 18 18 18 18 17 17 17 17 16 16 16 16 16 15 15 15 15 15
24 25 25 24 25 25 25 25 25 24 23 23 24 23 23 23 23 23 22 22 21 21 20 20 19 18 18 18 18 17 17 17 17 16 16 16 16 16 16 15 15 15 15 15
25 26 25 25 25 25 25 25 25 24 23 22 24 23 22 23 24 23 23 22 22 21 20 20 19 18 18 18 17 17 17 17 17 16 16 16 16 16 15 15 15 15 15 15
24 25 25 25 25 25 25 23 22 22 21 22 25 24 23 24 25 24 23 23 22 21 20 20 19 18 18 17 17 17 17 17 16 16 16 16 15 15 15 15 15 15 15 15
23 23 25 25 24 24 24 24 22 21 22 23 24 24 23 25 25 24 24 23 22 21 20 20 19 18 18 17 17 16 16 16 16 16 16 16 15 15 15 15 15 15 15 14
24 24 25 25 25 25 24 23 24 23 23 23 23 23 24 25 24 24 23 23 22 21 20 19 19 18 18 17 17 16 16 16 16 16 16 16 15 15 15 15 15 14 14 14
24 23 24 25 25 25 25 24 23 22 22 22 23 23 22 23 23 23 23 23 22 21 20 19 19 18 18 17 16 16 16 16 15 15 15 15 15 15 15 14 14 14 14 14
24 23 24 24 24 24 24 24 24 23 23 22 21 22 24 23 24 23 23 23 22 21 20 19 19 18 17 17 16 16 16 16 15 15 15 15 15 15 14 14 14 14 14 14
24 23 23 24 25 25 25 24 23 22 22 22 22 22 24 24 24 23 23 22 21 20 20 19 19 18 17 17 16 16 16 16 15 15 15 15 15 14 14 14 14 14 14 13
23 22 22 22 23 24 24 24 24 23 23 22 21 22 24 23 23 23 22 21 21 20 19 19 18 18 17 17 16 16 16 15 15 15 15 15 14 14 14 14 13 13 13 13
22 22 22 22 22 23 23 23 24 23 22 22 22 22 23 22 22 22 22 21 20 19 19 18 18 18 17 17 16 16 16 15 15 15 15 14 14 14 14 13 13 13 13 13
23 22 23 24 24 24 23 23 23 23 23 22 23 23 22 22 22 22 21 20 20 19 18 18 17 17 17 16 16 16 15 15 15 15 14 14 14 14 13 13 13 13 13 12
23 22 23 23 24 24 23 23 23 23 23 23 23 22 23 22 22 21 20 20 19 18 18 17 17 16 16 16 16 15 15 15 15 14 14 14 14 13 13 13 13 12 12 12
23 22 22 22 23 23 22 23 23 23 23 23 21 22 22 22 21 20 20 19 18 18 17 17 16 16 16 16 16 15 15 15 14 14 14 14 13 13 13 13 12 12 12 12
22 22 22 22 22 21 22 23 23 23 22 22 22 21 21 21 20 20 19 18 17 17 17 16 16 15 15 15 15 15 15 14 14 14 14 13 13 13 12 12 12 12 12 12
22 21 21 21 21 21 22 22 22 22 21 22 21 21 20 20 20 19 18 17 17 16 16 16 15 15 15 15 15 14 14 14 14 13 13 13 13 12 12 12 12 12 11 11
22 22 21 20 20 20 20 21 22 21 20 20 20 20 20 19 18 17 17 16 16 16 15 15 15 15 14 14 14 14 14 14 13 13 13 13 12 12 12 12 11 11 11 11
20 20 20 20 20 20 20 20 21 19 19 19 19 19 18 18 17 17 16 15 15 15 15 14 14 14 14 14 13 13 13 13 13 13 12 12 12 12 11 11 11 11 11 11
20 19 19 19 19 18 19 20 19 19 19 19 18 18 17 17 16 16 15 15 14 14 14 14 13 13 13 13 13 13 13 12 12 12 12 12 11 11 11 11 10 10 10 10
20 19 19 19 18 19 18 18 18 18 18 18 17 17 16 16 15 15 14 14 14 13 13 13 13 13 12 12 12 12 12 12 12 11 11 11 11 10 10 10 10 10 10 10
19 20 19 19 18 18 18 17 17 17 17 16 16 16 15 15 15 14 14 13 13 13 13 12 12 12 12 12 12 11 11 11 11 11 10 10 10 10 9 9 9 9 9 9
18 18 18 18 18 17 17 17 16 16 16 15 15 15 14 14 14 14 13 13 12 12 12 12 12 11 11 11 11 11 11 10 10 10 10 9 9 9 9 9 9 9 9 8
18 18 17 17 18 17 16 16 15 15 15 15 14 14 14 14 13 13 13 12 12 12 11 11 11 11 11 11 11 11 10 10 10 9 9 9 9 8 8 8 8 8 8 8
Wind_Speed
7 6 5 6 7 6 5 5 4 3 3 5 6 6 6 7 7 7 7 8 8 8 8 7 6 5 5 4 4 5 5 4 3 2 2 2 1 1 2 2 3 2 2 4
5 6 6 4 5 6 6 6 5 3 2 4 5 6 6 8 8 7 7 8 8 8 8 8 6 5 4 5 4 5 4 4 3 3 2 2 2 1 2 1 2 2 2 3
7 5 4 6 6 6 6 6 6 4 4 6 5 5 6 7 8 7 7 6 7 8 8 8 7 6 5 4 4 4 4 4 4 4 2 2 2 1 1 2 1 1 2 2
6 5 5 6 6 7 6 6 5 5 6 5 6 4 5 8 9 9 8 8 7 6 7 7 7 6 5 4 4 4 4 4 4 4 3 3 2 2 2 2 2 2 2 2
5 5 6 6 6 7 5 5 6 8 8 8 8 6 4 8 8 10 10 9 9 8 8 8 8 7 6 5 3 3 4 3 3 3 3 2 1 1 1 2 3 2 2 2
7 6 5 5 5 6 6 7 8 8 6 7 9 7 3 5 6 8 9 9 9 9 8 7 8 7 6 6 4 3 3 3 3 3 3 2 1 1 2 1 1 1 1 1
9 8 6 6 7 6 7 5 4 4 5 5 5 3 2 3 3 5 8 9 9 9 9 8 8 7 6 6 5 4 3 3 3 3 3 3 2 2 2 2 2 2 1 1
7 7 7 7 7 5 7 7 5 4 4 3 3 2 3 5 5 5 5 7 7 8 8 8 8 7 7 7 6 6 5 4 3 3 3 3 3 2 1 1 1 2 2 2
5 4 4 5 6 7 6 6 6 7 10 7 2 1 4 6 6 5 5 6 6 7 7 7 7 7 7 7 7 6 5 4 4 3 3 3 3 3 2 1 1 1 2 2
8 6 4 5 6 8 7 6 5 5 5 5 3 2 2 5 6 6 5 5 5 5 6 7 7 7 6 6 6 6 5 5 4 4 3 2 3 3 2 2 1 1 1 1
8 8 5 6 7 7 7 7 5 5 5 4 3 1 2 4 3 3 3 3 6 6 6 6 7 7 6 6 6 6 5 5 4 4 4 3 3 2 2 2 1 1 1 1
5 6 7 7 6 7 7 7 6 4 5 5 4 1 2 3 4 4 3 4 4 3 3 5 7 7 6 6 6 6 5 5 4 4 3 3 3 2 2 2 2 2 2 1
3 5 6 4 4 5 7 7 7 6 6 5 4 1 3 3 3 3 4 4 4 3 2 3 5 6 7 6 6 6 6 5 5 5 4 4 4 4 4 3 2 2 1 1
3 8 8 6 4 5 7 7 7 6 5 6 5 3 1 2 2 3 4 4 3 3 2 2 2 3 5 6 5 5 6 5 5 5 5 4 4 3 3 2 2 2 1 1
5 9 10 9 8 7 7 8 8 8 8 7 6 3 2 2 2 3 3 3 3 3 2 2 2 1 2 4 4 4 4 5 5 5 4 4 4 3 3 2 2 2 1 1
7 9 10 11 10 9 9 9 8 7 7 8 7 4 2 2 2 3 3 3 3 2 1 1 1 1 1 3 4 4 4 4 5 5 5 4 3 2 3 3 2 2 2 2
8 9 9 9 8 9 9 7 7 5 4 5 4 3 3 3 3 3 4 4 3 2 1 1 0 0 1 1 2 3 3 3 4 4 4 4 3 3 3 3 2 2 3 2
9 10 7 8 8 9 2 2 2 2 2 2 2 4 4 4 3 4 5 3 2 2 2 1 1 1 1 1 0 1 2 2 2 3 3 3 3 3 3 3 3 3 3 2
8 8 6 6 8 6 2 1 2 3 1 3 3 3 4 4 2 4 6 5 4 3 2 2 1 1 2 1 1 0 1 2 2 2 2 3 3 3 3 3 4 3 2 2
8 8 7 7 7 5 1 3 4 3 1 4 3 3 4 4 2 2 4 4 3 3 3 3 2 1 1 1 1 1 1 1 2 1 2 3 3 3 3 4 3 2 3 3
6 7 8 8 8 3 3 4 3 1 2 4 4 4 4 3 3 3 4 4 4 3 3 3 2 2 2 2 1 1 1 2 1 1 1 1 2 3 3 3 2 2 3 3
5 5 6 6 7 3 3 2 1 3 4 5 5 5 5 5 6 5 5 4 4 3 3 3 2 3 3 2 2 2 2 2 1 0 1 1 2 2 2 2 2 2 2 3
4 3 3 2 1 3 3 3 4 4 4 5 5 6 6 5 4 4 4 3 3 3 3 3 3 3 3 3 2 3 3 1 0 1 1 2 2 2 2 2 2 2 2 2
2 3 3 2 1 2 3 5 5 4 4 5 5 5 4 4 4 4 3 3 3 3 2 2 2 2 2 2 2 2 3 2 1 1 2 2 1 1 1 1 1 2 2 2
3 4 4 4 1 2 2 4 4 4 4 4 4 3 3 3 3 3 2 2 2 3 2 2 2 1 2 2 2 2 2 1 1 2 2 2 1 1 1 1 2 2 2 2
5 4 4 3 2 1 0 2 4 3 3 3 4 4 4 3 3 3 3 2 2 3 3 3 3 2 2 2 3 3 3 2 2 2 2 1 1 1 1 1 2 3 3 3
Wind_Direction
208 220 227 230 237 255 276 278 282 264 180 209 229 225 205 200 194 190 187 185 181 172 165 159 159 157 155 155 145 134 136 149 139 122 118 124 118 106 87 92 90 75 70 91
217 227 243 256 254 259 265 265 268 265 218 244 248 244 216 201 199 196 194 189 180 170 162 160 164 159 169 155 148 142 151 153 144 137 144 142 123 130 122 92 102 112 90 92
231 235 232 245 253 261 266 266 261 255 244 252 252 257 223 203 192 192 194 193 180 173 170 164 166 166 167 162 160 162 164 153 150 149 147 127 113 116 144 157 133 118 119 107
240 241 252 252 258 266 263 275 274 267 258 256 241 263 222 194 193 191 192 190 184 176 168 162 162 164 163 167 162 160 157 151 152 149 146 150 159 183 186 156 152 160 142 125
244 243 247 254 267 278 279 283 278 268 263 267 255 252 218 180 194 193 190 187 182 181 171 165 165 168 162 157 154 159 151 140 137 140 148 164 170 173 142 133 154 170 162 157
243 248 257 260 261 269 269 265 263 259 260 262 249 235 219 195 195 183 183 181 179 176 168 164 161 162 160 153 153 157 151 141 138 137 133 153 164 133 129 141 160 172 157 182
238 230 224 240 251 238 247 256 259 237 223 240 234 218 177 150 153 162 174 176 174 169 170 168 164 165 160 154 155 164 158 153 152 154 160 167 162 170 184 185 188 183 175 195
237 229 212 218 241 247 238 245 259 282 287 280 217 202 140 130 120 130 150 157 165 171 172 167 164 165 161 164 167 171 167 165 156 163 179 175 162 172 180 196 193 199 195 195
274 240 211 214 233 245 252 253 268 281 288 287 252 147 139 139 135 137 143 150 162 171 166 164 167 167 166 169 169 172 169 170 172 180 191 175 175 171 179 178 211 216 212 200
282 282 227 214 228 226 249 265 267 263 291 285 265 226 183 149 152 155 158 159 161 160 164 167 171 166 166 168 168 172 178 182 178 179 189 182 179 168 169 181 216 246 238 194
269 276 231 207 222 230 226 242 256 270 272 287 299 349 63 127 125 127 122 136 152 162 167 163 158 162 163 162 168 176 181 180 181 187 189 187 177 173 172 177 195 213 225 190
254 272 260 229 224 238 241 248 257 262 279 282 288 305 82 100 99 102 93 88 101 121 143 153 154 157 162 166 172 177 181 181 181 186 188 189 174 176 190 197 205 207 208 201
284 265 266 239 220 223 242 242 255 268 271 271 274 247 129 113 99 97 96 89 92 96 100 127 146 162 169 172 176 179 186 183 179 184 190 196 189 191 202 208 210 201 194 202
276 256 258 259 261 252 251 256 264 268 270 278 276 265 150 104 85 84 91 99 93 99 98 108 124 155 166 171 177 181 188 184 181 181 191 197 197 193 193 191 197 182 168 172
251 264 270 272 264 257 256 254 253 261 274 281 296 300 351 34 51 78 82 105 103 90 84 93 106 135 161 169 178 184 186 187 184 182 194 199 196 191 178 176 184 169 154 191
246 267 272 266 261 256 257 259 252 253 272 279 289 299 21 25 37 68 75 75 87 98 89 105 117 111 152 187 188 191 189 190 187 187 190 187 188 185 177 180 192 182 181 205
246 257 272 271 263 269 258 257 251 246 263 278 290 331 24 19 32 52 75 76 57 52 72 76 165 163 267 257 204 187 189 194 193 184 179 174 180 185 193 196 193 192 198 197
261 261 258 269 265 257 253 343 283 247 282 319 351 26 17 28 35 65 74 71 58 50 32 17 4 8 311 303 349 166 167 178 190 178 174 175 185 187 193 198 206 213 214 205
258 263 260 262 263 254 243 339 319 268 271 4 11 26 17 16 50 70 66 60 56 50 30 7 2 339 314 319 341 49 168 165 187 182 180 187 194 194 197 208 216 219 211 215
247 251 251 259 263 264 341 3 334 291 229 16 21 16 17 15 349 8 43 47 46 47 37 14 358 353 343 342 349 247 241 194 200 196 206 205 202 201 204 215 220 219 212 219
237 242 247 258 263 264 10 1 350 267 360 24 25 32 35 24 17 31 47 47 43 45 40 23 10 18 2 350 339 293 270 254 221 203 205 204 209 211 210 214 216 216 216 221
248 247 246 252 256 258 27 9 22 19 25 28 31 37 35 35 41 36 41 42 52 45 40 41 31 20 14 5 336 301 291 303 323 171 230 230 225 233 226 199 216 227 224 228
257 287 289 274 272 68 71 51 34 24 26 27 31 35 28 26 31 27 34 32 44 45 43 44 42 21 14 12 351 321 321 322 281 243 243 247 256 247 232 216 210 215 223 230
294 309 274 255 170 90 56 41 42 36 32 29 29 30 18 7 12 13 17 26 29 28 29 33 34 18 360 347 336 311 313 310 270 258 259 259 256 295 297 279 250 236 243 241
300 307 287 270 174 97 50 30 35 36 35 29 25 17 6 2 354 354 357 23 21 16 15 18 18 3 337 333 331 340 340 327 298 274 268 271 270 261 290 312 308 274 265 238
273 270 278 293 319 292 262 33 35 29 25 21 10 1 355 354 347 348 352 17 25 10 1 2 3 351 334 333 335 345 355 339 295 284 279 271 252 250 249 254 320 329 289 275
Height
1498 1500 1502 1499 1497 1497 1498 1501 1503 1500 1496 1499 1502 1503 1503 1504 1505 1507 1509 1512 1514 1516 1518 1521 1523 1524 1526 1527 1529 1530 1531 1532 1533 1534 1535 1536 1537 1537 1537 1538 1538 1538 1539 1539
1498 1500 1496 1494 1494 1494 1497 1501 1502 1498 1495 1497 1500 1500 1498 1500 1502 1504 1506 1508 1511 1513 1516 1519 1521 1523 1524 1526 1527 1529 1530 1531 1532 1533 1534 1536 1536 1537 1537 1537 1537 1538 1538 1538
1498 1495 1492 1493 1494 1496 1497 1500 1500 1500 1496 1495 1499 1503 1498 1497 1499 1501 1503 1506 1508 1510 1513 1516 1518 1521 1523 1524 1526 1527 1529 1530 1531 1532 1534 1535 1536 1536 1536 1536 1537 1537 1538 1538
1493 1491 1492 1493 1494 1494 1500 1493 1493 1496 1502 1504 1499 1512 1498 1494 1496 1498 1501 1503 1506 1508 1511 1513 1516 1518 1520 1522 1524 1526 1527 1529 1530 1531 1532 1533 1534 1535 1535 1536 1536 1536 1537 1537
1494 1491 1492 1494 1493 1492 1495 1491 1492 1494 1498 1502 1497 1504 1498 1490 1494 1494 1496 1500 1503 1506 1508 1511 1513 1516 1518 1520 1522 1524 1526 1527 1528 1529 1531 1532 1533 1534 1534 1535 1535 1535 1535 1536
1490 1489 1489 1491 1490 1491 1491 1492 1492 1492 1498 1509 1495 1499 1501 1491 1488 1489 1492 1496 1500 1503 1506 1508 1511 1514 1516 1518 1520 1522 1524 1525 1526 1528 1529 1530 1531 1532 1532 1533 1533 1534 1534 1534
1491 1488 1487 1489 1491 1491 1492 1501 1512 1513 1513 1506 1484 1490 1495 1484 1482 1485 1489 1493 1496 1500 1503 1506 1509 1511 1513 1515 1517 1519 1522 1523 1525 1526 1527 1528 1529 1530 1531 1531 1532 1532 1532 1532
1496 1496 1487 1487 1490 1492 1492 1497 1513 1519 1512 1498 1486 1492 1488 1480 1481 1485 1487 1491 1494 1498 1501 1503 1506 1508 1510 1513 1515 1517 1519 1521 1522 1524 1525 1526 1527 1528 1529 1529 1530 1530 1530 1530
1491 1493 1482 1483 1485 1487 1492 1493 1491 1501 1500 1501 1493 1488 1483 1479 1482 1484 1487 1490 1493 1496 1498 1501 1503 1506 1508 1510 1512 1514 1516 1518 1520 1521 1523 1524 1525 1526 1527 1527 1528 1528 1528 1528
1485 1492 1485 1483 1484 1485 1486 1488 1493 1501 1510 1511 1499 1494 1493 1485 1483 1484 1486 1488 1491 1493 1497 1500 1501 1504 1506 1508 1510 1512 1514 1516 1517 1519 1520 1522 1523 1524 1524 1525 1525 1525 1525 1526
1483 1490 1487 1484 1486 1487 1487 1489 1490 1493 1495 1507 1510 1504 1481 1482 1481 1483 1485 1487 1490 1493 1495 1497 1499 1502 1504 1506 1508 1510 1512 1513 1515 1516 1518 1519 1520 1521 1522 1523 1523 1523 1523 1523
1482 1487 1489 1483 1478 1478 1481 1484 1488 1501 1501 1495 1502 1503 1479 1480 1481 1484 1486 1488 1490 1492 1494 1495 1497 1499 1502 1504 1506 1508 1509 1510 1512 1514 1515 1517 1518 1519 1519 1520 1520 1520 1521 1521
1484 1489 1496 1494 1489 1483 1481 1481 1483 1486 1491 1495 1502 1500 1480 1482 1483 1484 1486 1488 1490 1492 1493 1494 1495 1497 1499 1501 1503 1505 1507 1508 1509 1511 1512 1514 1515 1515 1516 1517 1517 1518 1518 1518
1485 1487 1491 1498 1493 1485 1485 1483 1482 1486 1494 1494 1491 1490 1483 1483 1483 1485 1486 1489 1490 1492 1493 1494 1494 1496 1497 1499 1501 1502 1504 1505 1506 1508 1509 1510 1511 1512 1513 1514 1515 1515 1515 1515
1483 1485 1481 1479 1477 1478 1481 1481 1481 1484 1484 1489 1487 1485 1483 1483 1483 1485 1487 1489 1490 1492 1493 1494 1494 1495 1496 1497 1499 1500 1502 1503 1504 1505 1506 1507 1508 1509 1510 1511 1511 1512 1512 1513
1481 1483 1480 1481 1475 1475 1478 1477 1478 1480 1481 1482 1482 1483 1481 1482 1484 1485 1487 1489 1490 1492 1493 1493 1494 1494 1495 1496 1497 1498 1499 1501 1501 1502 1503 1504 1505 1506 1507 1507 1508 1509 1509 1509
1480 1482 1485 1484 1476 1476 1483 1477 1476 1477 1478 1480 1485 1484 1481 1482 1484 1486 1487 1489 1491 1492 1492 1492 1493 1493 1494 1495 1495 1496 1496 1498 1498 1499 1500 1501 1502 1502 1503 1504 1505 1505 1506 1506
1480 1480 1482 1483 1482 1493 1481 1471 1471 1475 1477 1478 1479 1481 1482 1483 1485 1486 1487 1489 1490 1491 1491 1491 1492 1492 1492 1493 1493 1494 1494 1495 1496 1496 1497 1498 1498 1499 1500 1501 1501 1502 1503 1503
1477 1479 1483 1485 1487 1482 1478 1474 1474 1477 1480 1478 1480 1481 1482 1483 1484 1486 1487 1488 1489 1490 1490 1490 1490 1490 1490 1490 1491 1492 1492 1492 1493 1493 1494 1494 1495 1495 1496 1497 1498 1499 1499 1500
1475 1476 1481 1483 1489 1490 1483 1475 1474 1477 1484 1480 1480 1481 1482 1483 1487 1488 1487 1488 1488 1488 1488 1488 1488 1488 1488 1488 1489 1489 1489 1489 1490 1490 1491 1491 1491 1492 1492 1493 1494 1495 1496 1496
1479 1479 1482 1484 1485 1482 1480 1477 1476 1487 1488 1482 1481 1482 1483 1485 1487 1488 1487 1487 1487 1487 1486 1487 1486 1486 1486 1486 1486 1486 1487 1487 1487 1488 1488 1488 1488 1488 1489 1489 1490 1491 1492 1492
1478 1481 1482 1483 1488 1490 1481 1479 1482 1485 1483 1483 1483 1484 1485 1486 1486 1486 1486 1486 1485 1485 1485 1485 1485 1485 1485 1484 1484 1484 1484 1485 1485 1485 1485 1485 1485 1485 1486 1486 1486 1487 1488 1488
1475 1478 1478 1480 1485 1482 1481 1482 1483 1483 1484 1484 1485 1485 1486 1486 1486 1486 1486 1486 1485 1484 1484 1484 1484 1483 1483 1483 1483 1482 1482 1482 1482 1482 1482 1482 1482 1482 1482 1482 1482 1483 1484 1484
1475 1475 1476 1478 1480 1481 1482 1483 1483 1484 1484 1485 1486 1486 1486 1486 1486 1486 1485 1485 1484 1483 1483 1483 1482 1482 1482 1482 1481 1481 1480 1480 1479 1479 1479 1479 1479 1478 1478 1478 1478 1479 1479 1480
1478 1477 1477 1478 1479 1481 1483 1484 1484 1484 1485 1485 1486 1486 1486 1486 1485 1485 1484 1483 1483 1483 1482 1482 1481 1481 1480 1480 1479 1478 1477 1477 1476 1476 1476 1476 1475 1475 1475 1475 1475 1475 1475 1476
1478 1479 1480 1481 1480 1481 1483 1484 1484 1484 1485 1485 1485 1485 1485 1485 1484 1483 1483 1482 1482 1481 1481 1480 1480 1479 1478 1477 1476 1475 1474 1474 1473 1473 1472 1472 1472 1472 1472 1471 1471 1471 1472 1472